DECAYED

OBJECT C, 44488 (Decayed)

Orbit data source: Space-Track

You're viewing an Uncataloged Satellite

Recently launched and/or uncataloged satellites may have evolving metadata. Metadata may include but not limited to: Owner, Maufacturer, Bus, Motor, and Mission.

OBJECT C, 44488 was a satellite owned by Guoxing (CN) in LEO that was launched on Sat, 17 Aug 2019 UTC via a JIELONG-1 launch vehicle from the Jiuquan Satellite Launch Center, China (JSC). Unknown objects in Earth's orbit typically refer to objects detected orbiting the Earth but have not yet been identified or cataloged. These objects could be anything from previously untracked satellites, spent rocket stages, debris from satellite collisions, or even natural meteoroids temporarily captured by Earth's gravity. This object's orbit decayed before it could be identified.

Not visible in the next 10 days
Identifier
44488, 2019-052C
Orbit
Decayed
Country
Flag of CNCN / PRC
Related business
Manufacturer
Weina
Mission
Decayed Commercial Technology
Bus & Motor
MN10, Unknown motor
Mass
~20 kg wet, ~20 kg dry
Launch date (UTC)
2019-08-17 (6 years ago)
Launch vehicle
JIELONG-1
Launch site
Jiuquan Satellite Launch Center, China (JSC)
Object type
Unknown
Shape & HBR
Box + 3 Pan, 0.5 m
Radar Cross Section
0.225 m², Medium (>0.1 m² and < 1m²)

Expand to show TLE details & history
Last TLE update: 10 months ago

TLE from 10 months ago
0 OBJECT C
1 44488U 19052C   24319.98751478  .17349390  25414-5  44692-3 0  9998
2 44488  97.3701  40.4158 0010034 275.6713  84.3445 16.45152244290595
Epoch: 2024-11-14T23:42Z
TLE epoch observation values (Epoch: 2024-11-14T23:42:01.276Z)
Latitude
-0.00005°
Longitude
-9.65135°
Altitude
154.752 km
Speed
7.814 km/s
True Right ascension
02h 41m 39s
True Declination
0° 00' 00"
Sunlit
Object was in full shadow at epoch
Visualization orbit readout
Latitude
Unknown
Longitude
Unknown
Altitude
Unknown
Speed
Unknown
Apparent Right ascension
Unknown
Apparent Declination
Unknown
Sunlit
N/A
Visualization observer readout
Local Sidereal Time
02:59:12
Azimuth
Unknown
Elevation
Unknown
Doppler factor
Unknown
Orbital elements
Apogee altitude
155.481 km
Perigee altitude
142.383 km
Semi-major axis
6,527.069 km
Eccentricity
0.001
Inclination
97.3701°
RAAN
40.4158°
Arg. of periapsis
275.6713°
True anomaly
84.45894°
Mean anomaly
84.3445°
Eccentric anomaly
84.40172°
Mean motion
4.11591 °/min
Orbital period
87.47 mins
BSTAR
0.00044692
Loading maneuver chart data...
Computing Atmospheric mass density...
Loading historical data...
Loading historical data...
Loading historical data...
Loading historical data...
Loading historical data...
Loading historical data...
Loading historical data...
Other satellites on launch #52 in the year 2019 (2019-08-17 UTC)

Documentation

Showing up to 5 results
|